| time (UTC) | temp C | wind direction | speed KPH | gust KPH | rain 1hr cm | rain 24hr cm | rain mn cm | humidity % | barometer mb |
| 20260507130704 | 11 | 196 | 3.2 | 4.8 | 0.00 | 0.00 | 0.00 | 81 | 1020.5 |
| 20260507130204 | 11 | 169 | 1.6 | 8.0 | 0.00 | 0.00 | 0.00 | 81 | 1020.5 |
| 20260507123703 | 11 | 173 | 3.2 | 4.8 | 0.00 | 0.00 | 0.00 | 80 | 1020.6 |
| 20260507123204 | 11 | 178 | 4.8 | 12.9 | 0.00 | 0.00 | 0.00 | 80 | 1020.6 |
| 20260507120704 | 11 | 157 | 4.8 | 9.7 | 0.00 | 0.00 | 0.00 | 81 | 1020.7 |
| 20260507120204 | 11 | 152 | 3.2 | 9.7 | 0.00 | 0.00 | 0.00 | 81 | 1020.7 |
| 20260507113703 | 11 | 162 | 3.2 | 8.0 | 0.00 | 0.00 | 0.00 | 81 | 1020.9 |
| 20260507110704 | 11 | 131 | 1.6 | 3.2 | 0.00 | 0.00 | 0.00 | 83 | 1021.1 |
| 20260507110204 | 11 | 126 | 1.6 | 4.8 | 0.00 | 0.00 | 0.00 | 84 | 1021.1 |
| 20260507103704 | 11 | 126 | 1.6 | 4.8 | 0.00 | 0.00 | 0.00 | 84 | 1021.1 |
| 20260507103204 | 11 | 156 | 1.6 | 4.8 | 0.00 | 0.00 | 0.00 | 84 | 1021.2 |
| 20260507100204 | 11 | 169 | 3.2 | 8.0 | 0.00 | 0.00 | 0.00 | 85 | 1021.3 |
| 20260507093204 | 11 | 153 | 3.2 | 9.7 | 0.00 | 0.00 | 0.00 | 86 | 1021.2 |
| 20260507090204 | 11 | 231 | 0.0 | 8.0 | 0.00 | 0.00 | 0.00 | 84 | 1021.1 |
| 20260507083703 | 12 | 121 | 0.0 | 4.8 | 0.00 | 0.00 | 0.00 | 84 | 1021.0 |
| 20260507083203 | 12 | 147 | 1.6 | 8.0 | 0.00 | 0.00 | 0.00 | 84 | 1021.0 |
| 20260507080704 | 11 | 216 | 1.6 | 4.8 | 0.00 | 0.00 | 0.00 | 85 | 1021.1 |
| 20260507080204 | 11 | 173 | 0.0 | 11.3 | 0.00 | 0.00 | 0.00 | 85 | 1021.1 |
| 20260507073703 | 11 | 253 | 1.6 | 4.8 | 0.00 | 0.00 | 0.00 | 87 | 1021.1 |
| 20260507073203 | 11 | 170 | 1.6 | 9.7 | 0.00 | 0.00 | 0.00 | 87 | 1021.1 |
| 20260507070704 | 11 | 173 | 3.2 | 16.1 | 0.00 | 0.00 | 0.00 | 88 | 1021.0 |
| 20260507070204 | 11 | 181 | 3.2 | 9.7 | 0.00 | 0.00 | 0.00 | 88 | 1021.0 |
| 20260507063705 | 12 | 262 | 1.6 | 4.8 | 0.00 | 0.00 | 0.00 | 87 | 1021.0 |
| 20260507063203 | 12 | 187 | 1.6 | 11.3 | 0.00 | 0.00 | 0.00 | 87 | 1021.0 |
| 20260507060704 | 12 | 171 | 3.2 | 8.0 | 0.00 | 0.00 | 0.00 | 87 | 1021.1 |
| 20260507053704 | 12 | 175 | 1.6 | 11.3 | 0.00 | 0.00 | 0.00 | 86 | 1021.1 |
| 20260507053205 | 12 | 237 | 3.2 | 14.5 | 0.00 | 0.00 | 0.00 | 85 | 1021.1 |
| 20260507050204 | 12 | 254 | 4.8 | 9.7 | 0.00 | 0.00 | 0.00 | 81 | 1021.0 |
| 20260507043204 | 13 | 313 | 1.6 | 16.1 | 0.00 | 0.00 | 0.00 | 81 | 1021.0 |
| 20260507040704 | 13 | 191 | 1.6 | 4.8 | 0.00 | 0.00 | 0.00 | 81 | 1021.0 |
| 20260507040204 | 13 | 278 | 1.6 | 11.3 | 0.00 | 0.00 | 0.00 | 81 | 1021.0 |
| 20260507033704 | 13 | 150 | 1.6 | 4.8 | 0.00 | 0.00 | 0.00 | 80 | 1020.7 |
| 20260507033206 | 13 | 212 | 3.2 | 12.9 | 0.00 | 0.00 | 0.00 | 79 | 1020.6 |
| 20260507030704 | 13 | 214 | 3.2 | 8.0 | 0.00 | 0.00 | 0.00 | 78 | 1020.5 |
| 20260507030203 | 13 | 57 | 4.8 | 14.5 | 0.00 | 0.00 | 0.00 | 78 | 1020.4 |
| 20260507023704 | 13 | 238 | 6.4 | 11.3 | 0.00 | 0.00 | 0.00 | 77 | 1020.3 |
| 20260507023203 | 14 | 209 | 3.2 | 11.3 | 0.00 | 0.00 | 0.00 | 77 | 1020.3 |
| 20260507020704 | 14 | 271 | 3.2 | 9.7 | 0.00 | 0.00 | 0.00 | 76 | 1020.2 |
| 20260507020204 | 14 | 216 | 4.8 | 11.3 | 0.00 | 0.00 | 0.00 | 76 | 1020.3 |
| 20260507013704 | 14 | 262 | 3.2 | 11.3 | 0.00 | 0.00 | 0.00 | 76 | 1020.2 |
| 20260507013205 | 14 | 260 | 1.6 | 19.3 | 0.00 | 0.00 | 0.00 | 76 | 1020.2 |
| 20260507010704 | 14 | 246 | 3.2 | 9.7 | 0.00 | 0.00 | 0.00 | 76 | 1020.3 |
| 20260507010204 | 14 | 252 | 3.2 | 16.1 | 0.00 | 0.00 | 0.00 | 76 | 1020.3 |
| 20260507003704 | 15 | 227 | 1.6 | 11.3 | 0.00 | 0.00 | 0.00 | 74 | 1020.4 |
| 20260507003205 | 15 | 207 | 3.2 | 14.5 | 0.00 | 0.00 | 0.00 | 74 | 1020.4 |
| 20260507000703 | 14 | 231 | 3.2 | 16.1 | 0.00 | 0.00 | 0.00 | 75 | 1020.5 |
| 20260506233704 | 15 | 267 | 6.4 | 19.3 | 0.00 | 0.00 | 0.00 | 74 | 1020.3 |
| 20260506233205 | 15 | 208 | 3.2 | 19.3 | 0.00 | 0.00 | 0.00 | 74 | 1020.5 |
| 20260506230703 | 14 | 107 | 1.6 | 9.7 | 0.00 | 0.00 | 0.00 | 75 | 1020.6 |
| 20260506230204 | 14 | 217 | 4.8 | 16.1 | 0.00 | 0.00 | 0.00 | 75 | 1020.5 |
| 20260506223705 | 14 | 179 | 4.8 | 11.3 | 0.00 | 0.00 | 0.00 | 74 | 1020.6 |
| 20260506220704 | 14 | 207 | 4.8 | 14.5 | 0.00 | 0.00 | 0.00 | 76 | 1020.8 |
| 20260506220204 | 13 | 230 | 4.8 | 14.5 | 0.00 | 0.00 | 0.00 | 76 | 1020.8 |
| 20260506213705 | 13 | 184 | 3.2 | 8.0 | 0.00 | 0.00 | 0.00 | 76 | 1020.8 |
| 20260506213204 | 13 | 180 | 3.2 | 12.9 | 0.00 | 0.00 | 0.00 | 77 | 1020.8 |
| 20260506210703 | 13 | 217 | 3.2 | 16.1 | 0.00 | 0.00 | 0.00 | 77 | 1020.8 |
| 20260506210204 | 13 | 191 | 4.8 | 16.1 | 0.00 | 0.00 | 0.00 | 77 | 1020.8 |
| 20260506203704 | 13 | 191 | 3.2 | 4.8 | 0.00 | 0.00 | 0.00 | 79 | 1020.7 |
| 20260506203204 | 13 | 210 | 3.2 | 12.9 | 0.00 | 0.00 | 0.00 | 78 | 1020.7 |
| 20260506200704 | 13 | 249 | 1.6 | 8.0 | 0.00 | 0.00 | 0.00 | 80 | 1020.6 |
| 20260506200204 | 13 | 287 | 1.6 | 11.3 | 0.00 | 0.00 | 0.00 | 80 | 1020.6 |
| 20260506193204 | 13 | 263 | 1.6 | 11.3 | 0.00 | 0.00 | 0.00 | 83 | 1020.5 |
| 20260506190705 | 13 | 193 | 3.2 | 4.8 | 0.00 | 0.00 | 0.00 | 84 | 1020.5 |
| 20260506190204 | 13 | 222 | 1.6 | 8.0 | 0.00 | 0.00 | 0.00 | 84 | 1020.5 |
| 20260506183704 | 13 | 220 | 1.6 | 4.8 | 0.00 | 0.00 | 0.00 | 86 | 1020.4 |
| 20260506183203 | 12 | 306 | 1.6 | 12.9 | 0.00 | 0.00 | 0.00 | 86 | 1020.4 |
| 20260506180203 | 12 | 224 | 1.6 | 8.0 | 0.00 | 0.00 | 0.00 | 87 | 1020.1 |
| 20260506173704 | 12 | 257 | 3.2 | 4.8 | 0.00 | 0.00 | 0.00 | 88 | 1020.3 |
| 20260506170704 | 12 | 194 | 3.2 | 4.8 | 0.00 | 0.00 | 0.00 | 91 | 1020.2 |
| 20260506170205 | 12 | 248 | 0.0 | 8.0 | 0.00 | 0.00 | 0.00 | 92 | 1020.1 |
| 20260506163704 | 12 | 292 | 1.6 | 8.0 | 0.00 | 0.00 | 0.00 | 92 | 1019.9 |
| 20260506163204 | 12 | 181 | 1.6 | 4.8 | 0.00 | 0.00 | 0.00 | 92 | 1019.6 |
| 20260506160704 | 11 | 299 | 1.6 | 4.8 | 0.00 | 0.00 | 0.00 | 92 | 1019.7 |
| 20260506160204 | 12 | 190 | 1.6 | 4.8 | 0.00 | 0.00 | 0.00 | 92 | 1019.7 |
| 20260506153704 | 12 | 269 | 1.6 | 4.8 | 0.00 | 0.00 | 0.00 | 92 | 1020.0 |
| 20260506150704 | 12 | 225 | 0.0 | 4.8 | 0.00 | 0.00 | 0.00 | 92 | 1019.6 |
| 20260506150204 | 12 | 283 | 3.2 | 12.9 | 0.00 | 0.00 | 0.00 | 91 | 1019.6 |
| 20260506143704 | 12 | 264 | 0.0 | 3.2 | 0.00 | 0.00 | 0.00 | 91 | 1019.5 |
| 20260506143204 | 12 | 267 | 3.2 | 4.8 | 0.00 | 0.00 | 0.00 | 91 | 1019.6 |
| 20260506140703 | 12 | 144 | 3.2 | 9.7 | 0.00 | 0.00 | 0.00 | 90 | 1019.4 |
| 20260506140204 | 12 | 199 | 1.6 | 8.0 | 0.00 | 0.00 | 0.00 | 91 | 1019.5 |
| 20260506133704 | 12 | 225 | 1.6 | 4.8 | 0.00 | 0.00 | 0.00 | 89 | 1019.3 |
| 20260506133205 | 12 | 208 | 1.6 | 8.0 | 0.00 | 0.00 | 0.00 | 88 | 1019.2 |